Terminal Aerodrome Forecast
Issued by NWS Rapid City, SD

Home | Current Version | Previous Version | Text Only | Print | Product List | Glossary Off
Versions: 1 2 3 4 5 6 7 8 9 10 11 12 13 14 15 16 17 18 19 20

000
FTUS43 KUNR 222300
TAFRAP
TAF
KRAP 222320Z 2300/2324 27010KT P6SM BKN100
     FM230300 32018G28KT P6SM BKN070
     FM230800 32020G30KT P6SM SCT150
     FM231800 32030G42KT P6SM BKN100=

USA.gov is the U.S. government's official web portal to all federal, state and local government web resources and services.